Tillbaka till svenska Fidonet
English   Information   Debug  
FILM   0/18
FNEWS_PUBLISH   4851
FN_SYSOP   42078
FN_SYSOP_OLD1   71952
FTP_FIDO   0/2
FTSC_PUBLIC   0/13916
FUNNY   0/4886
GENEALOGY.EUR   0/71
GET_INFO   105
GOLDED   0/408
HAM   3863/16594
HOLYSMOKE   0/6791
HOT_SITES   0/1
HTMLEDIT   0/71
HUB203   466
HUB_100   264
HUB_400   39
HUMOR   0/29
IC   0/2851
INTERNET   0/424
INTERUSER   0/3
IP_CONNECT   719
JAMNNTPD   0/233
JAMTLAND   0/47
KATTY_KORNER   0/41
LAN   0/16
LINUX-USER   0/19
LINUXHELP   0/1155
LINUX   0/22279
LINUX_BBS   0/957
mail   18.68
mail_fore_ok   249
MENSA   0/341
MODERATOR   0/102
MONTE   0/992
MOSCOW_OKLAHOMA   0/1245
MUFFIN   0/783
MUSIC   0/321
N203_STAT   938
N203_SYSCHAT   313
NET203   321
NET204   69
NET_DEV   0/10
NORD.ADMIN   0/101
NORD.CHAT   0/2572
NORD.FIDONET   189
NORD.HARDWARE   0/28
NORD.KULTUR   0/114
NORD.PROG   0/32
NORD.SOFTWARE   0/88
NORD.TEKNIK   0/58
NORD   0/453
OCCULT_CHAT   0/93
OS2BBS   0/787
OS2DOSBBS   0/580
OS2HW   0/42
OS2INET   0/37
OS2LAN   0/134
OS2PROG   0/36
OS2REXX   0/113
OS2USER-L   207
OS2   0/4823
OSDEBATE   0/18996
PASCAL   0/490
PERL   0/457
PHP   0/45
POINTS   0/405
POLITICS   0/29554
POL_INC   0/14731
PSION   103
R20_ADMIN   1133
R20_AMATORRADIO   0/2
R20_BEST_OF_FIDONET   16
R20_CHAT   0/896
R20_DEPP   0/3
R20_DEV   400
R20_ECHO2   1761
R20_ECHOPRES   0/35
R20_ESTAT   0/719
R20_FIDONETPROG...
...RAM.MYPOINT
  0/2
R20_FIDONETPROGRAM   0/22
R20_FIDONET   0/248
R20_FILEFIND   0/24
R20_FILEFOUND   0/22
R20_HIFI   0/3
R20_INFO2   3654
R20_INTERNET   0/12940
R20_INTRESSE   0/60
R20_INTR_KOM   0/99
R20_KANDIDAT.CHAT   42
R20_KANDIDAT   28
R20_KOM_DEV   112
R20_KONTROLL   0/13360
R20_KORSET   0/18
R20_LOKALTRAFIK   0/24
R20_MODERATOR   0/1852
R20_NC   76
R20_NET200   245
R20_NETWORK.OTH...
...ERNETS
  0/13
R20_OPERATIVSYS...
...TEM.LINUX
  0/44
R20_PROGRAMVAROR   0/1
R20_REC2NEC   534
R20_SFOSM   0/341
R20_SF   0/108
R20_SPRAK.ENGLISH   0/1
R20_SQUISH   107
R20_TEST   2
R20_WORST_OF_FIDONET   20
RAR   0/9
RA_MULTI   106
RA_UTIL   0/162
REGCON.EUR   0/2067
REGCON   0/13
SCIENCE   0/1206
SF   0/239
SHAREWARE_SUPPORT   0/5146
SHAREWRE   0/14
SIMPSONS   0/169
STATS_OLD1   1299/2539.065
STATS_OLD2   0/2530
STATS_OLD3   0/2395.095
STATS_OLD4   0/1692.25
SURVIVOR   0/495
SYSOPS_CORNER   0/3
SYSOP   0/84
TAGLINES   0/112
TEAMOS2   0/4530
TECH   0/2617
TEST.444   0/105
TRAPDOOR   0/19
TREK   0/755
TUB   0/290
UFO   0/40
UNIX   0/1316
USA_EURLINK   0/102
USR_MODEMS   0/1
VATICAN   0/2740
VIETNAM_VETS   0/14
VIRUS   0/378
VIRUS_INFO   0/201
VISUAL_BASIC   0/473
WHITEHOUSE   0/5187
WIN2000   0/101
WIN32   0/30
WIN95   0/4291
WIN95_OLD1   0/70272
WINDOWS   0/1517
WWB_SYSOP   0/419
WWB_TECH   0/810
ZCC-PUBLIC   0/1
ZEC   4

 
4DOS   0/134
ABORTION   0/7
ALASKA_CHAT   0/506
ALLFIX_FILE   0/1313
ALLFIX_FILE_OLD1   0/7997
ALT_DOS   0/152
AMATEUR_RADIO   0/1039
AMIGASALE   0/14
AMIGA   0/331
AMIGA_INT   0/1
AMIGA_PROG   0/20
AMIGA_SYSOP   0/26
ANIME   0/15
ARGUS   0/924
ASCII_ART   0/340
ASIAN_LINK   0/651
ASTRONOMY   0/417
AUDIO   0/92
AUTOMOBILE_RACING   0/105
BABYLON5   0/17862
BAG   135
BATPOWER   0/361
BBBS.ENGLISH   0/382
BBSLAW   0/109
BBS_ADS   0/5290
BBS_INTERNET   0/507
BIBLE   0/3563
BINKD   0/1119
BINKLEY   0/215
BLUEWAVE   0/2173
CABLE_MODEMS   0/25
CBM   0/46
CDRECORD   0/66
CDROM   0/20
CLASSIC_COMPUTER   0/378
COMICS   0/15
CONSPRCY   0/899
COOKING   40756
COOKING_OLD1   0/24719
COOKING_OLD2   0/40862
COOKING_OLD3   0/37489
COOKING_OLD4   0/35496
COOKING_OLD5   9370
C_ECHO   0/189
C_PLUSPLUS   0/31
DIRTY_DOZEN   0/201
DOORGAMES   0/2234
DOS_INTERNET   0/196
duplikat   6102
ECHOLIST   0/18295
EC_SUPPORT   0/318
ELECTRONICS   0/359
ELEKTRONIK.GER   1534
ENET.LINGUISTIC   0/13
ENET.POLITICS   0/4
ENET.SOFT   0/11701
ENET.SYSOP   34240
ENET.TALKS   0/32
ENGLISH_TUTOR   0/2000
EVOLUTION   0/1335
FDECHO   0/217
FDN_ANNOUNCE   0/7068
FIDONEWS   24878
FIDONEWS_OLD1   0/49742
FIDONEWS_OLD2   0/35949
FIDONEWS_OLD3   0/30874
FIDONEWS_OLD4   0/37224
FIDO_SYSOP   12919
FIDO_UTIL   0/180
FILEFIND   0/209
FILEGATE   0/212
Möte HAM, 16594 texter
 lista första sista föregående nästa
Text 1041, 764 rader
Skriven 2006-06-02 00:30:42 av Amsat List (1:323/120.0)
Ärende: 
========
SB KEPS @ AMSAT  $ORB06152.O
Orbital Elements  06152.OSCAR

HR AMSAT ORBITAL ELEMENTS FOR OSCAR SATELLITES
FROM WA5QGD FORT WORTH,TX June 1, 2006
Send SUBSCRIBE KEPS/UNSUBSCRIBE KEPS to majordomo@amsat.org only
BID: ORB06152.O
TO ALL RADIO AMATEURS BT

Satellite: AO-07
Catalog number: 07530
Epoch time:      06151.74639950
Element set:     593
Inclination:      101.5679 deg
RA of node:       195.0873 deg
Eccentricity:    0.0011778
Arg of perigee:   278.5519 deg
Mean anomaly:     081.4216 deg
Mean motion:   12.53571728 rev/day
Decay rate:       -2.8e-07 rev/day^2
Epoch rev:           44332
Checksum:              319

Satellite: AO-10
Catalog number: 14129
Epoch time:      06146.43111868
Element set:    0285
Inclination:      027.4205 deg
RA of node:       333.2469 deg
Eccentricity:    0.6032068
Arg of perigee:   288.1319 deg
Mean anomaly:     017.3981 deg
Mean motion:   02.05864232 rev/day
Decay rate:      -2.20e-06 rev/day^2
Epoch rev:           17260
Checksum:              281

Satellite: UO-11
Catalog number: 14781
Epoch time:      06152.62816443
Element set:      84
Inclination:      098.2064 deg
RA of node:       162.5164 deg
Eccentricity:    0.0008609
Arg of perigee:   321.7324 deg
Mean anomaly:     038.3248 deg
Mean motion:   14.79427670 rev/day
Decay rate:        1.5e-07 rev/day^2
Epoch rev:           19346
Checksum:              297

Satellite: RS-10/11
Catalog number: 18129
Epoch time:      06152.58730812
Element set:       3
Inclination:      082.9238 deg
RA of node:       339.7012 deg
Eccentricity:    0.0012644
Arg of perigee:   130.4461 deg
Mean anomaly:     229.7785 deg
Mean motion:   13.72775335 rev/day
Decay rate:        4.9e-07 rev/day^2
Epoch rev:           94901
Checksum:              298

Satellite: RS-15
Catalog number: 23439
Epoch time:      06150.80984975
Element set:     950
Inclination:      064.8180 deg
RA of node:       265.3275 deg
Eccentricity:    0.0167659
Arg of perigee:   256.9145 deg
Mean anomaly:     101.3019 deg
Mean motion:   11.27551588 rev/day
Decay rate:       -3.9e-07 rev/day^2
Epoch rev:           47058
Checksum:              332

Satellite: FO-29
Catalog number: 24278
Epoch time:      06152.56627831
Element set:     239
Inclination:      098.5125 deg
RA of node:       159.2550 deg
Eccentricity:    0.0351167
Arg of perigee:   350.4338 deg
Mean anomaly:     009.0230 deg
Mean motion:   13.52920732 rev/day
Decay rate:       -4.9e-07 rev/day^2
Epoch rev:           48343
Checksum:              301

Satellite: SO-33
Catalog number: 25509
Epoch time:      06152.36619002
Element set:     665
Inclination:      031.4345 deg
RA of node:       218.7336 deg
Eccentricity:    0.0355309
Arg of perigee:   338.1396 deg
Mean anomaly:     020.4399 deg
Mean motion:   14.28109372 rev/day
Decay rate:       2.70e-06 rev/day^2
Epoch rev:           39677
Checksum:              308

Satellite: AO-40
Catalog number: 26609
Epoch time:      06150.08728645
Element set:     728
Inclination:      006.7378 deg
RA of node:       239.1108 deg
Eccentricity:    0.7946539
Arg of perigee:   165.3700 deg
Mean anomaly:     252.3485 deg
Mean motion:   01.25585960 rev/day
Decay rate:      -2.54e-06 rev/day^2
Epoch rev:            2562
Checksum:              323

Satellite: VO-52
Catalog number: 28650
Epoch time:      06152.38056626
Element set:     340
Inclination:      097.8705 deg
RA of node:       225.6950 deg
Eccentricity:    0.0028368
Arg of perigee:   054.4763 deg
Mean anomaly:     305.9084 deg
Mean motion:   14.81122932 rev/day
Decay rate:       5.52e-06 rev/day^2
Epoch rev:            5804
Checksum:              307

/EX
SB KEPS @ AMSAT  $ORB06152.D
Orbital Elements  06152.MICROS

HR AMSAT ORBITAL ELEMENTS FOR THE MICROSATS
FROM WA5QGD FORT WORTH,TX June 1, 2006
Send SUBSCRIBE KEPS/UNSUBSCRIBE KEPS to majordomo@amsat.org only
BID: ORB06152.D
TO ALL RADIO AMATEURS BT

Satellite: AO-16
Catalog number: 20439
Epoch time:      06152.07561451
Element set:     759
Inclination:      098.1860 deg
RA of node:       162.9254 deg
Eccentricity:    0.0009950
Arg of perigee:   242.6639 deg
Mean anomaly:     117.3553 deg
Mean motion:   14.31722815 rev/day
Decay rate:        1.8e-07 rev/day^2
Epoch rev:           85401
Checksum:              302

Satellite: WO-18
Catalog number: 20441
Epoch time:      06152.55198719
Element set:     959
Inclination:      098.1864 deg
RA of node:       167.9900 deg
Eccentricity:    0.0010635
Arg of perigee:   240.2823 deg
Mean anomaly:     119.7310 deg
Mean motion:   14.31793386 rev/day
Decay rate:        1.9e-07 rev/day^2
Epoch rev:           85414
Checksum:              316

Satellite: LO-19
Catalog number: 20442
Epoch time:      06151.89886575
Element set:    0698
Inclination:      098.1877 deg
RA of node:       172.2181 deg
Eccentricity:    0.0010907
Arg of perigee:   241.9332 deg
Mean anomaly:     118.0749 deg
Mean motion:   14.31966197 rev/day
Decay rate:        4.8e-07 rev/day^2
Epoch rev:           85412
Checksum:              337

Satellite: UO-22
Catalog number: 21575
Epoch time:      06151.85481242
Element set:    0714
Inclination:      098.2950 deg
RA of node:       110.0734 deg
Eccentricity:    0.0008196
Arg of perigee:   115.5410 deg
Mean anomaly:     244.6628 deg
Mean motion:   14.39550269 rev/day
Decay rate:        5.2e-07 rev/day^2
Epoch rev:           78066
Checksum:              294

Satellite: KO-23
Catalog number: 22077
Epoch time:      06151.42605532
Element set:    0807
Inclination:      066.0821 deg
RA of node:       137.1487 deg
Eccentricity:    0.0000350
Arg of perigee:   109.7201 deg
Mean anomaly:     250.3850 deg
Mean motion:   12.86436950 rev/day
Decay rate:       -3.7e-07 rev/day^2
Epoch rev:           64838
Checksum:              278

